Location: Unspecified
(0.0000°N, 0.0000°E)
Time: 02:58:14
(UTC+00:00)

Hubble Space Telescope - Pass Details

Date: 27 October 2021
Orbit: 535 x 538 km, 28.5° (Epoch: 27 November)

Event Time Altitude Azimuth Distance (km) Brightness Sun altitude
Exits shadow 05:13:26 - 261° (W) 1,989 3.1 -7.4°
Reaches altitude 10° 05:14:09 10° 255° (WSW) 1,782 2.9 -7.2°
Maximum altitude 05:17:07 19° 209° (SSW) 1,307 2.6 -6.5°
Drops below altitude 10° 05:20:06 10° 162° (SSE) 1,785 3.9 -5.8°
Sets 05:22:53 0° 144° (SE) 2,677 5.2 -5.1°
